Flag for U.S.A. Weather past 2 weeks in Little Rock, Arkansas, U.S.A.

Now
95 °F

Scattered clouds.


Feels Like: 96 °F
Forecast: 69 / 91 °F
Wind: 5 mph from North

Location: Adams Field

Current Time: Aug 30, 2015 at 3:52:07 PM

Latest Report: Aug 30, 2015 at 2:53 PM


Visibility: 10 mi

Pressure: 29.98 "Hg

Humidity: 34%

Dew point: 62 °F

Location of Little RockLocation

Historic Weather in Little Rock — Graph

°F

Little Rock temperature yesterday

Maximum temperature yesterday: 89 °F (at 2:53 PM)
Minimum temperature yesterday: 69 °F (at 5:53 AM)
Average temperature yesterday: 79 °F

Past Weeks' High & Low Weather Summary

 TemperatureHumidityPressure
High96 °F (Aug 18, 3:53 PM)100% (Aug 19, 9:53 PM)30.18 "Hg (Aug 19, 9:53 PM)
Low63 °F (Aug 25, 5:53 AM)24% (Aug 25, 3:53 PM)29.75 "Hg (Aug 18, 6:53 PM)
Average78 °F66%30.02 "Hg
* Reported Aug 15 1:53 PM — Aug 30 1:53 PM, Little Rock, Weather by CustomWeather, © 2015

Note: Actual official high and low records may vary slightly from our data, if they occured in-between our weather recording intervals... More about our weather records

Advertising

Little Rock weather history for previous 24 hours

 ConditionsComfort  
Time TempWeatherWind HumidityBarometerVisibility
1:53 PM
Sun, Aug 30
95 °FScattered clouds.12 mph34%30.00 "Hg10 mi
12:53 PM93 °FScattered clouds.7 mph37%30.01 "Hg10 mi
11:53 AM91 °FScattered clouds.6 mph42%30.03 "Hg10 mi
10:53 AM87 °FScattered clouds.6 mph48%30.04 "Hg10 mi
9:53 AM84 °FScattered clouds.No wind57%30.03 "Hg10 mi
8:53 AM78 °FScattered clouds.3 mph69%30.02 "Hg10 mi
7:53 AM72 °FScattered clouds.No wind87%30.02 "Hg8 mi
6:53 AM69 °FFog.No wind93%30.00 "Hg6 mi
5:53 AM70 °FPassing clouds.No wind87%29.99 "Hg7 mi
4:53 AM70 °FPassing clouds.No wind90%29.98 "Hg7 mi
3:53 AM70 °FPassing clouds.No wind93%29.98 "Hg10 mi
2:53 AM72 °FPassing clouds.No wind87%29.98 "Hg10 mi
1:53 AM72 °FPassing clouds.No wind87%30.00 "Hg10 mi
12:53 AM74 °FPassing clouds.No wind82%30.00 "Hg10 mi
11:53 PM
Sat, Aug 29
76 °FPassing clouds.No wind77%30.01 "Hg10 mi
10:53 PM75 °FPassing clouds.3 mph82%30.01 "Hg10 mi
9:53 PM77 °FPassing clouds.No wind77%30.01 "Hg10 mi
8:53 PM79 °FPassing clouds.No wind72%29.99 "Hg10 mi
7:53 PM82 °FMore clouds than sun.No wind60%29.97 "Hg10 mi
6:53 PM85 °FMore clouds than sun.No wind53%29.97 "Hg10 mi
5:53 PM86 °FCloudy.3 mph46%29.97 "Hg10 mi
4:53 PM87 °FCloudy.8 mph46%29.99 "Hg10 mi
3:53 PM88 °FCloudy.7 mph38%29.98 "Hg10 mi
Weather by CustomWeather, © 2015

See weather overviewHow to use our weather pages